カタログに戻る

STARLINK-30150

運用中通信VLEO
NORAD 57621·PAYLOAD·🇺🇸 United States

打ち上げ Aug 11, 2023 から Cape Canaveral Space Force Station

Loading…

次のパス (今後24時間)

TLE

最新Source: CelesTrak SupGP

元期: Sep 15, 2026, 02:05 UTC

1 57621C 23119V   26258.08729167  .00030009  00000+0  10871-2 0  2588
2 57621  43.0007  91.8099 0001862 278.5692  98.6462 15.27557991    16

AllMySatでSTARLINK-30150をリアルタイム追跡

Download on the App Store